Date,TemperatureHighF,TemperatureAvgF,TemperatureLowF,DewpointHighF,DewpointAvgF,DewpointLowF,HumidityHigh,HumidityAvg,HumidityLow,PressureMaxIn,PressureMinIn,WindSpeedMaxMPH,WindSpeedAvgMPH,GustSpeedMaxMPH,PrecipitationSumIn
2013-1-1,23,20,14,-100,-100,-100,0,0,100,0.00,40.00,0,-999,0,0.00
2013-1-2,16,15,13,-100,-100,-100,0,0,100,0.00,40.00,0,-999,0,0.00
2013-1-3,38,28,18,-100,-100,-100,0,0,100,0.00,40.00,0,-999,0,0.01
2013-1-4,36,29,18,-100,-100,-100,0,0,100,0.00,40.00,0,-999,0,0.00
2013-1-5,34,28,22,-100,-100,-100,0,0,100,0.00,40.00,0,-999,0,0.00
2013-1-6,37,30,21,-100,-100,-100,0,0,100,0.00,40.00,0,-999,0,0.00
2013-1-7,34,29,24,-100,-100,-100,0,0,100,0.00,40.00,0,-999,0,0.00
2013-1-8,34,32,29,-100,-100,-100,0,0,100,0.00,40.00,0,-999,0,0.00
2013-1-9,41,36,34,-100,-100,-100,0,0,100,0.00,40.00,0,-999,0,0.00
2013-1-10,35,18,3,-100,-100,-100,0,0,100,0.00,40.00,0,-999,0,0.00
2013-1-11,2,-1,-3,-100,-100,-100,0,0,100,0.00,40.00,0,-999,0,0.00
2013-1-12,12,6,-1,-100,-100,-100,0,0,100,0.00,40.00,0,-999,0,0.01
2013-1-13,10,6,3,-100,-100,-100,0,0,100,0.00,40.00,0,-999,0,0.00
2013-1-14,16,10,4,-100,-100,-100,0,0,100,0.00,40.00,0,-999,0,0.00
2013-1-15,25,22,16,-100,-100,-100,0,0,100,0.00,40.00,0,-999,0,0.01
2013-1-16,36,33,29,-100,-100,-100,0,0,100,0.00,40.00,0,-999,0,0.01
2013-1-17,42,36,26,-100,-100,-100,0,0,100,0.00,40.00,0,-999,0,0.00
2013-1-18,45,36,26,-100,-100,-100,0,0,100,0.00,40.00,0,-999,0,0.00
2013-1-19,41,37,36,-100,-100,-100,0,0,100,0.00,40.00,0,-999,0,0.00
2013-1-20,39,32,14,-100,-100,-100,0,0,100,0.00,40.00,0,-999,0,0.00
2013-1-21,46,39,33,-100,-100,-100,0,0,100,0.00,40.00,0,-999,0,0.01
2013-1-22,49,37,27,-100,-100,-100,0,0,100,0.00,40.00,0,-999,0,0.00
2013-1-23,41,38,35,-100,-100,-100,0,0,100,0.00,40.00,0,-999,0,0.00
2013-1-27,25,22,20,-100,-100,-100,0,0,100,0.00,40.00,0,-999,0,0.00
2013-1-29,21,16,11,-100,-100,-100,0,0,100,0.00,40.00,0,-999,0,0.00
2013-1-30,26,24,22,-100,-100,-100,0,0,100,0.00,40.00,0,-999,0,0.00
2013-1-31,36,36,35,-100,-100,-100,0,0,100,0.00,40.00,0,-999,0,0.01
2013-2-2,36,32,26,-100,-100,-100,0,0,100,0.00,40.00,0,-999,0,0.00
2013-2-3,38,33,25,-100,-100,-100,0,0,100,0.00,40.00,0,-999,0,0.00
2013-2-4,35,33,31,-100,-100,-100,0,0,100,0.00,40.00,0,-999,0,0.00
2013-2-5,40,32,27,-100,-100,-100,0,0,100,0.00,40.00,0,-999,0,0.00
2013-2-6,30,30,30,-100,-100,-100,0,0,100,0.00,40.00,0,-999,0,0.00
2013-2-7,36,28,22,-100,-100,-100,0,0,100,0.00,40.00,0,-999,0,0.00
2013-2-8,29,25,16,-100,-100,-100,0,0,100,0.00,40.00,0,-999,0,0.00
2013-2-9,27,23,20,-100,-100,-100,0,0,100,0.00,40.00,0,-999,0,0.01
2013-2-10,22,16,5,-100,-100,-100,0,0,100,0.00,40.00,0,-999,0,0.01
2013-2-11,24,21,8,-100,-100,-100,0,0,100,0.00,40.00,0,-999,0,0.01
2013-2-12,32,28,24,-100,-100,-100,0,0,100,0.00,40.00,0,-999,0,0.00
2013-2-13,29,27,26,-100,-100,-100,0,0,100,0.00,40.00,0,-999,0,0.00
2013-2-14,26,23,17,-100,-100,-100,0,0,100,0.00,40.00,0,-999,0,0.00
2013-2-15,34,33,32,-100,-100,-100,0,0,100,0.00,40.00,0,-999,0,0.00
2013-2-16,46,37,25,-100,-100,-100,0,0,100,0.00,40.00,0,-999,0,0.00
2013-2-17,28,26,24,-100,-100,-100,0,0,100,0.00,40.00,0,-999,0,0.00
2013-2-18,33,27,20,-100,-100,-100,0,0,100,0.00,40.00,0,-999,0,0.00
2013-2-19,36,25,22,-100,-100,-100,0,0,100,0.00,40.00,0,-999,0,0.00
2013-2-20,28,23,14,-100,-100,-100,0,0,100,0.00,40.00,0,-999,0,0.00
2013-2-21,25,18,13,-100,-100,-100,0,0,100,0.00,40.00,0,-999,0,0.00
2013-2-22,33,29,22,-100,-100,-100,0,0,100,0.00,40.00,0,-999,0,0.00
2013-2-23,20,20,20,-100,-100,-100,0,0,100,0.00,40.00,0,-999,0,0.00
2013-2-24,29,24,19,-100,-100,-100,0,0,100,0.00,40.00,0,-999,0,0.00
2013-2-25,22,22,22,-100,-100,-100,0,0,100,0.00,40.00,0,-999,0,0.00
2013-2-26,24,23,23,-100,-100,-100,0,0,100,0.00,40.00,0,-999,0,0.00
2013-2-27,37,28,16,-100,-100,-100,0,0,100,0.00,40.00,0,-999,0,0.00
2013-2-28,34,27,19,-100,-100,-100,0,0,100,0.00,40.00,0,-999,0,0.00
2013-3-1,44,39,33,-100,-100,-100,0,0,100,0.00,40.00,0,-999,0,0.01
2013-3-2,52,39,26,-100,-100,-100,0,0,100,0.00,40.00,0,-999,0,0.00
2013-3-3,38,28,16,-100,-100,-100,0,0,100,0.00,40.00,0,-999,0,0.01
2013-3-4,20,15,11,-100,-100,-100,0,0,100,0.00,40.00,0,-999,0,0.01
2013-3-5,36,23,10,-100,-100,-100,0,0,100,0.00,40.00,0,-999,0,0.01
2013-3-6,41,34,29,-100,-100,-100,0,0,100,0.00,40.00,0,-999,0,0.01
2013-3-7,41,31,21,-100,-100,-100,0,0,100,0.00,40.00,0,-999,0,0.00
2013-3-8,43,33,14,-100,-100,-100,0,0,100,0.00,40.00,0,-999,0,0.00
2013-3-9,38,31,25,-100,-100,-100,0,0,100,0.00,40.00,0,-999,0,0.01
2013-3-10,44,35,27,-100,-100,-100,0,0,100,0.00,40.00,0,-999,0,0.00
2013-3-11,34,29,19,-100,-100,-100,0,0,100,0.00,40.00,0,-999,0,0.00
2013-3-12,45,32,16,-100,-100,-100,0,0,100,0.00,40.00,0,-999,0,0.00
2013-3-13,52,41,29,-100,-100,-100,0,0,100,0.00,40.00,0,-999,0,0.01
2013-3-14,56,44,34,-100,-100,-100,0,0,100,0.00,40.00,0,-999,0,0.00
2013-3-15,46,41,36,-100,-100,-100,0,0,100,0.00,40.00,0,-999,0,0.00
2013-3-16,43,35,29,-100,-100,-100,0,0,100,0.00,40.00,0,-999,0,0.00
2013-3-17,31,25,20,-100,-100,-100,0,0,100,0.00,40.00,0,-999,0,0.01
2013-3-18,30,22,17,-100,-100,-100,0,0,100,0.00,40.00,0,-999,0,0.00
2013-3-19,37,26,19,-100,-100,-100,0,0,100,0.00,40.00,0,-999,0,0.01
2013-3-20,48,36,26,-100,-100,-100,0,0,100,0.00,40.00,0,-999,0,0.01
2013-3-21,30,24,18,-100,-100,-100,0,0,100,0.00,40.00,0,-999,0,0.01
2013-3-22,24,18,14,-100,-100,-100,0,0,100,0.00,40.00,0,-999,0,0.00
2013-3-23,28,14,-4,-100,-100,-100,0,0,100,0.00,40.00,0,-999,0,0.00
2013-3-24,33,17,1,-100,-100,-100,0,0,100,0.00,40.00,0,-999,0,0.00
2013-3-25,41,26,7,-100,-100,-100,0,0,100,0.00,40.00,0,-999,0,0.00
2013-3-26,44,32,22,-100,-100,-100,0,0,100,0.00,40.00,0,-999,0,0.01
2013-3-27,45,34,22,-100,-100,-100,0,0,100,0.00,40.00,0,-999,0,0.00
2013-3-28,52,39,29,-100,-100,-100,0,0,100,0.00,40.00,0,-999,0,0.00
2013-3-29,47,38,31,-100,-100,-100,0,0,100,0.00,40.00,0,-999,0,0.00
2013-3-30,48,39,34,-100,-100,-100,0,0,100,0.00,40.00,0,-999,0,0.00
2013-3-31,51,41,30,-100,-100,-100,0,0,100,0.00,40.00,0,-999,0,0.00
2013-4-1,53,38,24,-100,-100,-100,0,0,100,0.00,40.00,0,-999,0,0.00
2013-4-2,56,44,28,-100,-100,-100,0,0,100,0.00,40.00,0,-999,0,0.00
2013-4-3,51,43,35,-100,-100,-100,0,0,100,0.00,40.00,0,-999,0,0.01
2013-4-4,59,43,32,-100,-100,-100,0,0,100,0.00,40.00,0,-999,0,0.00
2013-4-5,48,41,35,-100,-100,-100,0,0,100,0.00,40.00,0,-999,0,0.00
2013-4-6,47,36,32,-100,-100,-100,0,0,100,0.00,40.00,0,-999,0,0.00
2013-4-7,44,33,23,-100,-100,-100,0,0,100,0.00,40.00,0,-999,0,0.02
2013-4-8,23,18,10,-100,-100,-100,0,0,100,0.00,40.00,0,-999,0,0.01
2013-4-9,37,20,2,-100,-100,-100,0,0,100,0.00,40.00,0,-999,0,0.01
2013-4-10,48,34,25,-100,-100,-100,0,0,100,0.00,40.00,0,-999,0,0.01
2013-4-11,43,37,30,-100,-100,-100,0,0,100,0.00,40.00,0,-999,0,0.01
2013-4-12,47,35,27,-100,-100,-100,0,0,100,0.00,40.00,0,-999,0,0.00
2013-4-13,42,32,23,-100,-100,-100,0,0,100,0.00,40.00,0,-999,0,0.01
2013-4-14,28,22,15,-100,-100,-100,0,0,100,0.00,40.00,0,-999,0,0.02
2013-4-15,22,17,13,-100,-100,-100,0,0,100,0.00,40.00,0,-999,0,0.01
2013-4-16,25,18,13,-100,-100,-100,0,0,100,0.00,40.00,0,-999,0,0.01
2013-4-17,32,21,13,-100,-100,-100,0,0,100,0.00,40.00,0,-999,0,0.01
2013-4-18,42,30,13,-100,-100,-100,0,0,100,0.00,40.00,0,-999,0,0.01
2013-4-19,47,37,30,-100,-100,-100,0,0,100,0.00,40.00,0,-999,0,0.01
2013-4-20,45,39,34,-100,-100,-100,0,0,100,0.00,40.00,0,-999,0,0.00
2013-4-21,35,28,22,-100,-100,-100,0,0,100,0.00,40.00,0,-999,0,0.00
2013-4-22,33,21,14,-100,-100,-100,0,0,100,0.00,40.00,0,-999,0,0.01
2013-4-23,22,22,21,-100,-100,-100,0,0,100,0.00,40.00,0,-999,0,0.00
2013-4-30,30,26,23,-100,-100,-100,0,0,100,0.00,40.00,0,-999,0,0.00
2013-5-1,39,28,13,-100,-100,-100,0,0,100,0.00,40.00,0,-999,0,0.01
2013-5-2,55,41,27,-100,-100,-100,0,0,100,0.00,40.00,0,-999,0,0.01
2013-5-3,47,41,35,-100,-100,-100,0,0,100,0.00,40.00,0,-999,0,0.01
2013-5-4,43,37,34,-100,-100,-100,0,0,100,0.00,40.00,0,-999,0,0.03
2013-5-5,56,41,29,-100,-100,-100,0,0,100,0.00,40.00,0,-999,0,0.01
2013-5-6,63,47,33,-100,-100,-100,0,0,100,0.00,40.00,0,-999,0,0.00
2013-5-7,57,47,36,-100,-100,-100,0,0,100,0.00,40.00,0,-999,0,0.00
2013-5-8,64,48,33,-100,-100,-100,0,0,100,0.00,40.00,0,-999,0,0.00
2013-5-9,63,51,38,-100,-100,-100,0,0,100,0.00,40.00,0,-999,0,0.01
2013-5-10,58,47,38,-100,-100,-100,0,0,100,0.00,40.00,0,-999,0,0.00
2013-5-11,66,51,36,-100,-100,-100,0,0,100,0.00,40.00,0,-999,0,0.00
2013-5-12,75,59,43,-100,-100,-100,0,0,100,0.00,40.00,0,-999,0,0.00
2013-5-13,74,60,47,-100,-100,-100,0,0,100,0.00,40.00,0,-999,0,0.00
2013-5-14,61,50,39,-100,-100,-100,0,0,100,0.00,40.00,0,-999,0,0.00
2013-5-15,59,48,39,-100,-100,-100,0,0,100,0.00,40.00,0,-999,0,0.01
2013-5-16,51,43,36,-100,-100,-100,0,0,100,0.00,40.00,0,-999,0,0.01
2013-5-17,45,40,34,-100,-100,-100,0,0,100,0.00,40.00,0,-999,0,0.00
2013-5-18,51,44,40,-100,-100,-100,0,0,100,0.00,40.00,0,-999,0,0.01
2013-5-19,43,41,38,-100,-100,-100,0,0,100,0.00,40.00,0,-999,0,0.02
2013-5-20,50,43,37,-100,-100,-100,0,0,100,0.00,40.00,0,-999,0,0.02
2013-5-21,61,48,35,-100,-100,-100,0,0,100,0.00,40.00,0,-999,0,0.01
2013-5-22,53,47,38,-100,-100,-100,0,0,100,0.00,40.00,0,-999,0,0.01
2013-5-23,43,36,33,-100,-100,-100,0,0,100,0.00,40.00,0,-999,0,0.03
2013-5-24,52,42,34,-100,-100,-100,0,0,100,0.00,40.00,0,-999,0,0.01
2013-5-25,54,44,32,-100,-100,-100,0,0,100,0.00,40.00,0,-999,0,0.01
2013-5-26,59,44,33,-100,-100,-100,0,0,100,0.00,40.00,0,-999,0,0.01
2013-5-27,55,45,35,-100,-100,-100,0,0,100,0.00,40.00,0,-999,0,0.01
2013-5-28,52,44,40,-100,-100,-100,0,0,100,0.00,40.00,0,-999,0,0.01
2013-5-29,52,45,38,-100,-100,-100,0,0,100,0.00,40.00,0,-999,0,0.01
2013-5-30,47,42,38,-100,-100,-100,0,0,100,0.00,40.00,0,-999,0,0.01
2013-5-31,44,40,37,-100,-100,-100,0,0,100,0.00,40.00,0,-999,0,0.01
2013-6-1,58,46,32,-100,-100,-100,0,0,100,0.00,40.00,0,-999,0,0.01
2013-6-2,55,45,39,-100,-100,-100,0,0,100,0.00,40.00,0,-999,0,0.02
2013-6-3,48,39,35,-100,-100,-100,0,0,100,0.00,40.00,0,-999,0,0.04
2013-6-4,49,39,34,-100,-100,-100,0,0,100,0.00,40.00,0,-999,0,0.03
2013-6-5,64,49,33,-100,-100,-100,0,0,100,0.00,40.00,0,-999,0,0.01
2013-6-6,67,56,41,-100,-100,-100,0,0,100,0.00,40.00,0,-999,0,0.01
2013-6-7,68,55,45,-100,-100,-100,0,0,100,0.00,40.00,0,-999,0,0.01
2013-6-8,67,55,45,-100,-100,-100,0,0,100,0.00,40.00,0,-999,0,0.00
2013-6-9,74,57,39,-100,-100,-100,0,0,100,0.00,40.00,0,-999,0,0.01
2013-6-10,71,56,38,-100,-100,-100,0,0,100,0.00,40.00,0,-999,0,0.01
2013-6-11,59,50,44,-100,-100,-100,0,0,100,0.00,40.00,0,-999,0,0.02
2013-6-12,66,53,41,-100,-100,-100,0,0,100,0.00,40.00,0,-999,0,0.05
2013-6-13,50,44,40,-100,-100,-100,0,0,100,0.00,40.00,0,-999,0,0.03
2013-6-14,52,44,39,-100,-100,-100,0,0,100,0.00,40.00,0,-999,0,0.02
2013-6-15,65,52,32,-100,-100,-100,0,0,100,0.00,40.00,0,-999,0,0.01
2013-6-16,66,53,38,-100,-100,-100,0,0,100,0.00,40.00,0,-999,0,0.01
2013-6-17,67,54,40,-100,-100,-100,0,0,100,0.00,40.00,0,-999,0,0.00
2013-6-18,76,61,44,-100,-100,-100,0,0,100,0.00,40.00,0,-999,0,0.03
2013-6-19,63,49,40,-100,-100,-100,0,0,100,0.00,40.00,0,-999,0,0.01
2013-6-20,48,41,38,-100,-100,-100,0,0,100,0.00,40.00,0,-999,0,0.01
2013-6-24,65,57,51,-100,-100,-100,0,0,100,0.00,40.00,0,-999,0,0.00
2013-6-25,65,52,43,-100,-100,-100,0,0,100,0.00,40.00,0,-999,0,0.00
2013-6-26,63,55,47,-100,-100,-100,0,0,100,0.00,40.00,0,-999,0,0.01
2013-6-27,76,59,43,-100,-100,-100,0,0,100,0.00,40.00,0,-999,0,0.01
2013-6-28,80,68,48,-100,-100,-100,0,0,100,0.00,40.00,0,-999,0,0.01
2013-6-29,78,62,50,-100,-100,-100,0,0,100,0.00,40.00,0,-999,0,0.00
2013-6-30,80,67,51,-100,-100,-100,0,0,100,0.00,40.00,0,-999,0,0.02
2013-7-1,81,68,52,-100,-100,-100,0,0,100,0.00,40.00,0,-999,0,0.01
2013-7-2,86,73,53,-100,-100,-100,0,0,100,0.00,40.00,0,-999,0,0.01
2013-7-3,79,72,63,-100,-100,-100,0,0,100,0.00,40.00,0,-999,0,0.00
2013-7-4,77,66,50,-100,-100,-100,0,0,100,0.00,40.00,0,-999,0,0.01
2013-7-5,69,61,48,-100,-100,-100,0,0,100,0.00,40.00,0,-999,0,0.00
2013-7-6,69,55,41,-100,-100,-100,0,0,100,0.00,40.00,0,-999,0,0.01
2013-7-7,75,60,45,-100,-100,-100,0,0,100,0.00,40.00,0,-999,0,0.00
2013-7-8,67,58,47,-100,-100,-100,0,0,100,0.00,40.00,0,-999,0,0.01
2013-7-9,75,58,42,-100,-100,-100,0,0,100,0.00,40.00,0,-999,0,0.00
2013-7-10,83,66,47,-100,-100,-100,0,0,100,0.00,40.00,0,-999,0,0.00
2013-7-11,73,65,52,-100,-100,-100,0,0,100,0.00,40.00,0,-999,0,0.01
2013-7-12,74,60,45,-100,-100,-100,0,0,100,0.00,40.00,0,-999,0,0.00
2013-7-13,69,59,46,-100,-100,-100,0,0,100,0.00,40.00,0,-999,0,0.00
2013-7-14,73,58,42,-100,-100,-100,0,0,100,0.00,40.00,0,-999,0,0.01
2013-7-15,80,61,46,-100,-100,-100,0,0,100,0.00,40.00,0,-999,0,0.00
2013-7-16,73,55,41,-100,-100,-100,0,0,100,0.00,40.00,0,-999,0,0.00
2013-7-17,77,60,50,-100,-100,-100,0,0,100,0.00,40.00,0,-999,0,0.02
2013-7-18,76,66,50,-100,-100,-100,0,0,100,0.00,40.00,0,-999,0,0.01
2013-7-19,77,63,47,-100,-100,-100,0,0,100,0.00,40.00,0,-999,0,0.00
2013-7-20,78,67,47,-100,-100,-100,0,0,100,0.00,40.00,0,-999,0,0.00
2013-7-21,79,66,50,-100,-100,-100,0,0,100,0.00,40.00,0,-999,0,0.00
2013-7-22,77,66,50,-100,-100,-100,0,0,100,0.00,40.00,0,-999,0,0.00
2013-7-23,79,69,51,-100,-100,-100,0,0,100,0.00,40.00,0,-999,0,0.00
2013-7-24,82,75,58,-100,-100,-100,0,0,100,0.00,40.00,0,-999,0,0.00
2013-7-25,76,63,46,-100,-100,-100,0,0,100,0.00,40.00,0,-999,0,0.01
2013-7-26,83,68,50,-100,-100,-100,0,0,100,0.00,40.00,0,-999,0,0.00
2013-7-27,77,66,53,-100,-100,-100,0,0,100,0.00,40.00,0,-999,0,0.01
2013-7-28,67,59,48,-100,-100,-100,0,0,100,0.00,40.00,0,-999,0,0.00
2013-7-29,64,53,46,-100,-100,-100,0,0,100,0.00,40.00,0,-999,0,0.00
2013-7-30,69,54,41,-100,-100,-100,0,0,100,0.00,40.00,0,-999,0,0.01
2013-7-31,74,64,43,-100,-100,-100,0,0,100,0.00,40.00,0,-999,0,0.00
2013-8-1,59,53,50,-100,-100,-100,0,0,100,0.00,40.00,0,-999,0,0.03
2013-8-2,63,53,42,-100,-100,-100,0,0,100,0.00,40.00,0,-999,0,0.03
2013-8-3,67,54,41,-100,-100,-100,0,0,100,0.00,40.00,0,-999,0,0.00
2013-8-4,72,59,43,-100,-100,-100,0,0,100,0.00,40.00,0,-999,0,0.00
2013-8-5,71,61,46,-100,-100,-100,0,0,100,0.00,40.00,0,-999,0,0.00
2013-8-6,68,58,45,-100,-100,-100,0,0,100,0.00,40.00,0,-999,0,0.00
2013-8-7,74,62,46,-100,-100,-100,0,0,100,0.00,40.00,0,-999,0,0.01
2013-8-8,73,61,44,-100,-100,-100,0,0,100,0.00,40.00,0,-999,0,0.00
2013-8-9,67,56,45,-100,-100,-100,0,0,100,0.00,40.00,0,-999,0,0.00
2013-8-10,73,58,46,-100,-100,-100,0,0,100,0.00,40.00,0,-999,0,0.01
2013-8-11,74,59,47,-100,-100,-100,0,0,100,0.00,40.00,0,-999,0,0.01
2013-8-12,74,56,47,-100,-100,-100,0,0,100,0.00,40.00,0,-999,0,0.01
2013-8-13,72,56,45,-100,-100,-100,0,0,100,0.00,40.00,0,-999,0,0.02
2013-8-14,74,61,47,-100,-100,-100,0,0,100,0.00,40.00,0,-999,0,0.01
2013-8-15,82,67,50,-100,-100,-100,0,0,100,0.00,40.00,0,-999,0,0.01
2013-8-16,85,74,51,-100,-100,-100,0,0,100,0.00,40.00,0,-999,0,0.00
2013-8-17,78,70,60,-100,-100,-100,0,0,100,0.00,40.00,0,-999,0,0.00
2013-8-18,78,68,58,-100,-100,-100,0,0,100,0.00,40.00,0,-999,0,0.01
2013-8-19,78,66,50,-100,-100,-100,0,0,100,0.00,40.00,0,-999,0,0.01
2013-8-20,76,64,49,-100,-100,-100,0,0,100,0.00,40.00,0,-999,0,0.00
2013-8-21,74,61,49,-100,-100,-100,0,0,100,0.00,40.00,0,-999,0,0.00
2013-8-22,73,62,48,-100,-100,-100,0,0,100,0.00,40.00,0,-999,0,0.02
2013-8-23,73,62,53,-100,-100,-100,0,0,100,0.00,40.00,0,-999,0,0.00
2013-8-24,70,63,55,-100,-100,-100,0,0,100,0.00,40.00,0,-999,0,0.00
2013-8-25,75,63,52,-100,-100,-100,0,0,100,0.00,40.00,0,-999,0,0.01
2013-8-26,72,62,50,-100,-100,-100,0,0,100,0.00,40.00,0,-999,0,0.01
2013-8-27,74,64,47,-100,-100,-100,0,0,100,0.00,40.00,0,-999,0,0.00
2013-8-28,75,70,65,-100,-100,-100,0,0,100,0.00,40.00,0,-999,0,0.00
2013-8-29,78,64,48,-100,-100,-100,0,0,100,0.00,40.00,0,-999,0,0.02
2013-8-30,77,66,50,-100,-100,-100,0,0,100,0.00,40.00,0,-999,0,0.00
2013-8-31,72,58,43,-100,-100,-100,0,0,100,0.00,40.00,0,-999,0,0.00
2013-9-1,77,66,46,-100,-100,-100,0,0,100,0.00,40.00,0,-999,0,0.01
2013-9-2,77,67,53,-100,-100,-100,0,0,100,0.00,40.00,0,-999,0,0.00
2013-9-3,75,60,50,-100,-100,-100,0,0,100,0.00,40.00,0,-999,0,0.01
2013-9-4,71,61,51,-100,-100,-100,0,0,100,0.00,40.00,0,-999,0,0.00
2013-9-5,77,63,51,-100,-100,-100,0,0,100,0.00,40.00,0,-999,0,0.02
2013-9-6,75,59,51,-100,-100,-100,0,0,100,0.00,40.00,0,-999,0,0.00
2013-9-7,69,57,49,-100,-100,-100,0,0,100,0.00,40.00,0,-999,0,0.01
2013-9-8,66,53,44,-100,-100,-100,0,0,100,0.00,40.00,0,-999,0,0.01
2013-9-9,61,54,48,-100,-100,-100,0,0,100,0.00,40.00,0,-999,0,0.00
2013-9-10,70,56,42,-100,-100,-100,0,0,100,0.00,40.00,0,-999,0,0.02
2013-9-11,71,63,46,-100,-100,-100,0,0,100,0.00,40.00,0,-999,0,0.00
2013-9-12,70,55,43,-100,-100,-100,0,0,100,0.00,40.00,0,-999,0,0.00
2013-9-13,72,57,48,-100,-100,-100,0,0,100,0.00,40.00,0,-999,0,0.01
2013-9-14,61,56,50,-100,-100,-100,0,0,100,0.00,40.00,0,-999,0,0.00
2013-9-15,66,56,43,-100,-100,-100,0,0,100,0.00,40.00,0,-999,0,0.02
2013-9-16,72,60,49,-100,-100,-100,0,0,100,0.00,40.00,0,-999,0,0.01
2013-9-17,52,47,41,-100,-100,-100,0,0,100,0.00,40.00,0,-999,0,0.00
2013-9-18,46,44,41,-100,-100,-100,0,0,100,0.00,40.00,0,-999,0,0.01
2013-9-19,55,45,40,-100,-100,-100,0,0,100,0.00,40.00,0,-999,0,0.01
2013-9-20,67,54,35,-100,-100,-100,0,0,100,0.00,40.00,0,-999,0,0.03
2013-9-21,69,58,52,-100,-100,-100,0,0,100,0.00,40.00,0,-999,0,0.01
2013-9-22,55,48,40,-100,-100,-100,0,0,100,0.00,40.00,0,-999,0,0.00
2013-9-23,50,42,34,-100,-100,-100,0,0,100,0.00,40.00,0,-999,0,0.01
2013-9-24,50,40,33,-100,-100,-100,0,0,100,0.00,40.00,0,-999,0,0.04
2013-9-25,38,36,34,-100,-100,-100,0,0,100,0.00,40.00,0,-999,0,0.03
2013-9-26,36,33,27,-100,-100,-100,0,0,100,0.00,40.00,0,-999,0,0.04
2013-9-27,41,33,26,-100,-100,-100,0,0,100,0.00,40.00,0,-999,0,0.01
2013-9-28,48,40,35,-100,-100,-100,0,0,100,0.00,40.00,0,-999,0,0.00
2013-10-2,44,38,32,-100,-100,-100,0,0,100,0.00,40.00,0,-999,0,0.01
2013-10-3,33,29,28,-100,-100,-100,0,0,100,0.00,40.00,0,-999,0,0.03
2013-10-4,41,32,28,-100,-100,-100,0,0,100,0.00,40.00,0,-999,0,0.00
2013-10-5,48,41,34,-100,-100,-100,0,0,100,0.00,40.00,0,-999,0,0.00
2013-10-6,60,45,31,-100,-100,-100,0,0,100,0.00,40.00,0,-999,0,0.00
2013-10-7,60,51,38,-100,-100,-100,0,0,100,0.00,40.00,0,-999,0,0.00
2013-10-8,41,36,29,-100,-100,-100,0,0,100,0.00,40.00,0,-999,0,0.00
2013-10-9,47,34,26,-100,-100,-100,0,0,100,0.00,40.00,0,-999,0,0.01
2013-10-10,47,36,30,-100,-100,-100,0,0,100,0.00,40.00,0,-999,0,0.00
2013-10-11,41,35,28,-100,-100,-100,0,0,100,0.00,40.00,0,-999,0,0.00
2013-10-12,41,31,24,-100,-100,-100,0,0,100,0.00,40.00,0,-999,0,0.00
2013-10-13,38,34,28,-100,-100,-100,0,0,100,0.00,40.00,0,-999,0,0.00
2013-10-21,46,44,42,-100,-100,-100,0,0,100,0.00,40.00,0,-999,0,0.00
2013-10-22,55,49,45,-100,-100,-100,0,0,100,0.00,40.00,0,-999,0,0.00
2013-10-23,43,36,33,-100,-100,-100,0,0,100,0.00,40.00,0,-999,0,0.00
2013-10-24,53,52,50,-100,-100,-100,0,0,100,0.00,40.00,0,-999,0,0.00
2013-10-25,48,46,45,-100,-100,-100,0,0,100,0.00,40.00,0,-999,0,0.00
2013-10-26,48,42,38,-100,-100,-100,0,0,100,0.00,40.00,0,-999,0,0.00
2013-10-27,50,37,24,-100,-100,-100,0,0,100,0.00,40.00,0,-999,0,0.00
2013-11-12,45,42,37,-100,-100,-100,0,0,100,0.00,40.00,0,-999,0,0.00
2013-11-13,43,41,38,-100,-100,-100,0,0,100,0.00,40.00,0,-999,0,0.00
2013-11-14,30,29,29,-100,-100,-100,0,0,100,0.00,40.00,0,-999,0,0.00
2013-11-15,32,32,32,-100,-100,-100,0,0,100,0.00,40.00,0,-999,0,0.00
2013-11-16,27,27,27,-100,-100,-100,0,0,100,0.00,40.00,0,-999,0,0.00
2013-11-17,31,28,24,-100,-100,-100,0,0,100,0.00,40.00,0,-999,0,0.00
2013-11-18,42,36,28,-100,-100,-100,0,0,100,0.00,40.00,0,-999,0,0.00
2013-11-19,44,39,35,-100,-100,-100,0,0,100,0.00,40.00,0,-999,0,0.00
2013-11-21,17,17,17,-100,-100,-100,0,0,100,0.00,40.00,0,-999,0,0.00
2013-11-22,26,26,26,-100,-100,-100,0,0,100,0.00,40.00,0,-999,0,0.00
2013-11-23,37,21,17,-100,-100,-100,0,0,100,0.00,40.00,0,-999,0,0.00
2013-11-24,43,39,38,-100,-100,-100,0,0,100,0.00,40.00,0,-999,0,0.00
2013-11-25,37,35,33,-100,-100,-100,0,0,100,0.00,40.00,0,-999,0,0.00
2013-11-26,36,32,27,-100,-100,-100,0,0,100,0.00,40.00,0,-999,0,0.00
2013-11-27,42,34,27,-100,-100,-100,0,0,100,0.00,40.00,0,-999,0,0.00
2013-11-28,47,32,25,-100,-100,-100,0,0,100,0.00,40.00,0,-999,0,0.00
2013-11-29,37,36,35,-100,-100,-100,0,0,100,0.00,40.00,0,-999,0,0.00
2013-11-30,38,36,34,-100,-100,-100,0,0,100,0.00,40.00,0,-999,0,0.00
2013-12-1,36,35,34,-100,-100,-100,0,0,100,0.00,40.00,0,-999,0,0.00
2013-12-2,35,22,5,-100,-100,-100,0,0,100,0.00,40.00,0,-999,0,0.00
2013-12-3,-3,-5,-9,-100,-100,-100,0,0,100,0.00,40.00,0,-999,0,0.00
2013-12-4,-3,-7,-16,-100,-100,-100,0,0,100,0.00,40.00,0,-999,0,0.00
2013-12-5,-2,-12,-20,-100,-100,-100,0,0,100,0.00,40.00,0,-999,0,0.01
2013-12-6,-16,-23,-27,-100,-100,-100,0,0,100,0.00,40.00,0,-999,0,0.00
2013-12-7,-12,-17,-20,-100,-100,-100,0,0,100,0.00,40.00,0,-999,0,0.00
2013-12-8,-2,-4,-5,-100,-100,-100,0,0,100,0.00,40.00,0,-999,0,0.00
2013-12-9,20,14,-4,-100,-100,-100,0,0,100,0.00,40.00,0,-999,0,0.02
2013-12-10,20,19,17,-100,-100,-100,0,0,100,0.00,40.00,0,-999,0,0.00
2013-12-11,25,21,18,-100,-100,-100,0,0,100,0.00,40.00,0,-999,0,0.00
2013-12-12,30,29,28,-100,-100,-100,0,0,100,0.00,40.00,0,-999,0,0.00
2013-12-13,32,30,28,-100,-100,-100,0,0,100,0.00,40.00,0,-999,0,0.00
2013-12-14,36,35,31,-100,-100,-100,0,0,100,0.00,40.00,0,-999,0,0.00
2013-12-15,38,34,29,-100,-100,-100,0,0,100,0.00,40.00,0,-999,0,0.00
2013-12-16,40,35,30,-100,-100,-100,0,0,100,0.00,40.00,0,-999,0,0.00
2013-12-17,45,40,34,-100,-100,-100,0,0,100,0.00,40.00,0,-999,0,0.00
2013-12-18,41,38,30,-100,-100,-100,0,0,100,0.00,40.00,0,-999,0,0.00
2013-12-19,15,4,-2,-100,-100,-100,0,0,100,0.00,40.00,0,-999,0,0.00
2013-12-20,26,19,15,-100,-100,-100,0,0,100,0.00,40.00,0,-999,0,0.01
2013-12-21,25,23,21,-100,-100,-100,0,0,100,0.00,40.00,0,-999,0,0.01
2013-12-22,27,26,26,-100,-100,-100,0,0,100,0.00,40.00,0,-999,0,0.01
2013-12-23,38,33,29,-100,-100,-100,0,0,100,0.00,40.00,0,-999,0,0.00
2013-12-24,27,25,24,-100,-100,-100,0,0,100,0.00,40.00,0,-999,0,0.00
2013-12-25,38,32,27,-100,-100,-100,0,0,100,0.00,40.00,0,-999,0,0.00
2013-12-26,43,38,35,-100,-100,-100,0,0,100,0.00,40.00,0,-999,0,0.00
2013-12-27,49,43,33,-100,-100,-100,0,0,100,0.00,40.00,0,-999,0,0.00
2013-12-28,27,17,13,-100,-100,-100,0,0,100,0.00,40.00,0,-999,0,0.00
2013-12-29,28,26,24,-100,-100,-100,0,0,100,0.00,40.00,0,-999,0,0.00
2013-12-30,35,35,35,-100,-100,-100,0,0,100,0.00,40.00,0,-999,0,0.00
2013-12-31,36,33,30,-100,-100,-100,0,0,100,0.00,40.00,0,-999,0,0.00
2014-1-1,29,28,26,-100,-100,-100,0,0,100,0.00,40.00,0,-999,0,0.01
2014-1-2,42,34,29,-100,-100,-100,0,0,100,0.00,40.00,0,-999,0,0.00